Regional Weather Roundup
Issued by NWS

Home | Current Version | Previous Version | Graphics & Text | Print | Product List | Glossary On
Versions: 1 2 3 4 5 6 7 8 9 10 11 12 13 14 15 16 17 18 19 20 21 22 23 24 25 26 27 28 29 30 31 32 33 34 35 36 37 38 39 40 41 42 43 44 45 46 47 48 49 50
000
ASUS43 KOAX 212210
RWRNE

WEATHER ROUNDUP FOR NEBRASKA
NATIONAL WEATHER SERVICE OMAHA NE
500 PM CDT SUN SEP 21 2014

NOTES: SATELLITE DATA IS BEING USED TO AUGMENT CLOUD COVER ABOVE
       12000 FEET.
       "FAIR" INDICATES FEW OR NO CLOUDS BELOW 12,000 FEET WITH NO
       SIGNIFICANT WEATHER AND/OR OBSTRUCTIONS TO VISIBILITY.

  * THESE STATIONS DO NOT REPORT WEATHER SUCH AS RAIN...SNOW OR FOG.

NEZ001>004-019>022-054>056-212300-
NEBRASKA PANHANDLE

CITY           SKY/WX    TMP DP  RH WIND       PRES   REMARKS
SCOTTSBLUFF    SUNNY     74  40  29 E17       30.28F
ALLIANCE       SUNNY     74  39  28 SE6       30.29F
CHADRON        SUNNY     76  40  27 VRB6      30.25F
KIMBALL        MOSUNNY   73  40  30 S13G21    30.30S
SIDNEY         SUNNY     74  39  28 SE12      30.31F
$$

NEZ057>060-069>072-079>082-212300-
SOUTHWEST NEBRASKA

CITY           SKY/WX    TMP DP  RH WIND       PRES   REMARKS
NORTH PLATTE   SUNNY     76  38  25 VRB6      30.27F
IMPERIAL       MOSUNNY   76  37  24 VRB6      30.28F
LEXINGTON      SUNNY     76  40  27 N5        30.26F
MCCOOK         SUNNY     78  39  24 NE8       30.26F
OGALLALA       MOSUNNY   76  40  27 CALM      30.28F
$$

NEZ005>010-023>029-035>040-094-212300-
NORTH CENTRAL NEBRASKA

CITY           SKY/WX    TMP DP  RH WIND       PRES   REMARKS
VALENTINE      SUNNY     75  37  25 MISG      30.28F
AINSWORTH      SUNNY     71  37  29 N8        30.28F
BROKEN BOW     SUNNY     76  36  23 NE9       30.26F
O`NEILL        SUNNY     71  45  40 N9        30.27S
ORD            SUNNY     73  41  31 N13       30.25S
THEDFORD       SUNNY     74  38  26 N6        30.29S
$$

NEZ041-046>049-061>064-073>077-083>087-212300-
SOUTH CENTRAL NEBRASKA

CITY           SKY/WX    TMP DP  RH WIND       PRES   REMARKS
GRAND ISLAND   SUNNY     74  42  31 NE13      30.25F
AURORA         SUNNY     73  37  27 N8        30.24F
HASTINGS       SUNNY     74  40  29 N12       30.25S
HEBRON         SUNNY     75  37  25 N9G16     30.23S
HOLDREGE       SUNNY     73  36  25 N7        30.26S
KEARNEY *      SUNNY     73  41  31 N13       30.26S
YORK           SUNNY     70  48  46 N6        30.24S
$$

NEZ011>018-030>034-042>045-212300-
NORTHEAST NEBRASKA

CITY           SKY/WX    TMP DP  RH WIND       PRES   REMARKS
NORFOLK        SUNNY     72  44  36 N16       30.23S
ALBION         SUNNY     72  41  33 N14       30.25S
BLAIR          MOSUNNY   71  47  42 NW10G18   30.21S
COLUMBUS *     SUNNY     72  45  37 N10G17    30.25R
FREMONT        SUNNY     71  45  38 NW13G20   30.23R
TEKAMAH        MOSUNNY   73  46  38 N15       30.21S
WAYNE          SUNNY     70  45  40 N14       30.24S
$$

NEZ050>053-065>068-078-088>093-212300-
SOUTHEAST NEBRASKA

CITY           SKY/WX    TMP DP  RH WIND       PRES   REMARKS
LINCOLN        LGT RAIN  74  45  35 N16G23    30.22S
OMAHA EPPLEY   MOSUNNY   72  46  39 N17       30.20S
BEATRICE       SUNNY     74  45  35 N13G20    30.21F
FALLS CITY     SUNNY     74  48  39 N13G20    30.17S
NEBRASKA CITY    N/A     71  34  25 N15G23    30.19S
PLATTSMOUTH    MOSUNNY   71  44  37 N9G20     30.20S
$$

NEZ044-045-051>053-067-212300-
OMAHA AREA

CITY           SKY/WX    TMP DP  RH WIND       PRES   REMARKS
OMAHA EPPLEY   MOSUNNY   72  46  39 N17       30.20S
BLAIR          MOSUNNY   71  47  42 NW10G18   30.21S
FREMONT        SUNNY     71  45  38 NW13G20   30.23R
MILLARD        MOSUNNY   72  48  43 N7G17     30.20F
OFFUTT AFB     SUNNY     72  50  45 N13       30.20S
PLATTSMOUTH    MOSUNNY   71  44  37 N9G20     30.20S
WAHOO          FAIR      72  43  35 N12G17    30.22S
$$



USA.gov is the U.S. government's official web portal to all federal, state and local government web resources and services.